Location: ??
(35.4824°N, 139.4679°E)
Time: 15:41:23
(UTC+00:00)

Cosmos 2278 - Pass Details

Date: 29 October 2020
Orbit: 841 x 851 km, 71.1° (Epoch: 01 December)

Event Time Altitude Azimuth Distance (km) Brightness Sun altitude
Rises 20:11:59 0° 329° (NNW) 3,402 6.5 -10.7°
Reaches altitude 10° 20:14:35 10° 322° (NW) 2,463 5.7 -10.2°
Maximum altitude 20:19:44 38° 256° (WSW) 1,265 4.2 -9.2°
Drops below altitude 10° 20:24:53 10° 189° (S) 2,449 6.1 -8.2°
Sets 20:27:28 0° 182° (S) 3,381 7.0 -7.6°
